{"data":{"norad_id":51972,"intl_designator":"2022-025S","name":"STARLINK-3671","alt_names":[],"object_type":"PAYLOAD","status":"ACTIVE","operator":null,"country":"US","launch_date":"2022-03-09","launch_site_code":"AFETR","launch_vehicle":null,"mission":null,"orbit_class":"UNKNOWN","rcs_meters":null,"size_class":null,"mass_kg":null,"dimensions":null,"purposes":["comms"],"wikipedia_slug":null,"has_3d_model":false,"image_url":null,"decayed_at":null,"tle_current":{"epoch":"2026-09-19T04:18:56.802240Z","epoch_age_seconds":169594,"freshness":"FRESH","line1":"1 51972U 22025S   26262.17982410 -.00000057  00000+0  99342-5 0  9999","line2":"2 51972  53.1585 216.9520 0001261  76.1885 283.9257 15.31701423250474","mean_motion":15.31701423,"eccentricity":0.0001261,"inclination_deg":53.1585,"raan_deg":216.952,"arg_perigee_deg":76.1885,"mean_anomaly_deg":283.9257,"bstar":9.9342e-6,"rev_number":25047,"period_min":94.013100619807,"perigee_km":469.87211048578,"apogee_km":471.59939619417,"semimajor_km":6848.87275334,"source":"CELESTRAK","updated_at":"2026-09-20T09:00:39.978060Z"}}}